FW6937 Weather Reports


time (UTC)temp
C
wind
direction
speed
KPH
gust
KPH
rain 1hr
cm
rain 24hr
cm
rain mn
cm
humidity
%
barometer
mb
20260506044611 20 254 3.2 6.4 0.00 0.00 0.00 57 1014.0
20260506044055 21 251 3.2 6.4 0.00 0.00 0.00 57 1014.0
20260506043653 20 251 3.2 6.4 0.00 0.00 0.00 57 1014.0
20260506043058 21 253 4.8 6.4 0.00 0.00 0.00 58 1013.9
20260506042557 21 239 4.8 6.4 0.00 0.00 0.00 58 1013.8
20260506042056 20 243 3.2 6.4 0.00 0.00 0.00 59 1013.8
20260506041556 20 250 3.2 4.8 0.00 0.00 0.00 57 1013.8
20260506041057 20 231 1.6 3.2 0.00 0.00 0.00 56 1013.8
20260506040559 20 257 0.0 6.4 0.00 0.00 0.00 58 1013.9
20260506040104 21 258 1.6 6.4 0.00 0.00 0.00 59 1013.8
20260506035558 20 255 3.2 6.4 0.00 0.00 0.00 59 1013.5
20260506035058 20 238 1.6 3.2 0.00 0.00 0.00 60 1013.4
20260506034612 21 248 1.6 3.2 0.00 0.00 0.00 59 1013.5
20260506034058 21 255 1.6 3.2 0.00 0.00 0.00 58 1013.8
20260506033557 21 249 1.6 3.2 0.00 0.00 0.00 59 1013.8
20260506033058 20 260 1.6 4.8 0.00 0.00 0.00 59 1013.9
20260506032557 20 255 1.6 4.8 0.00 0.00 0.00 59 1014.0
20260506032057 20 255 3.2 4.8 0.00 0.00 0.00 59 1014.1
20260506031559 20 242 1.6 4.8 0.00 0.00 0.00 61 1014.0
20260506031100 20 255 1.6 4.8 0.00 0.00 0.00 60 1014.0
20260506030600 20 259 3.2 4.8 0.00 0.00 0.00 59 1014.0
20260506025557 20 255 1.6 3.2 0.00 0.00 0.00 60 1014.1
20260506025055 20 257 1.6 3.2 0.00 0.00 0.00 61 1013.9
20260506024556 20 151 0.0 1.6 0.00 0.00 0.00 61 1013.7
20260506024058 20 0 0.0 0.0 0.00 0.00 0.00 63 1013.6
20260506023558 20 0 0.0 1.6 0.00 0.00 0.00 63 1013.7
20260506023059 20 0 0.0 1.6 0.00 0.00 0.00 63 1013.7
20260506022557 20 0 0.0 1.6 0.00 0.00 0.00 62 1013.7
20260506022057 20 142 0.0 1.6 0.00 0.00 0.00 62 1013.6
20260506021604 20 143 0.0 1.6 0.00 0.00 0.00 61 1013.5
20260506021058 20 68 0.0 1.6 0.00 0.00 0.00 61 1013.5
20260506020559 20 0 0.0 1.6 0.00 0.00 0.00 62 1013.5
20260506020056 19 44 0.0 3.2 0.00 0.00 0.00 62 1013.5
20260506015557 19 45 0.0 3.2 0.00 0.00 0.00 62 1013.6
20260506015057 19 26 1.6 3.2 0.00 0.00 0.00 62 1013.6
20260506014557 19 53 1.6 3.2 0.00 0.00 0.00 61 1013.5
20260506014057 19 52 1.6 3.2 0.00 0.00 0.00 61 1013.6
20260506013557 19 8 1.6 3.2 0.00 0.00 0.00 61 1013.5
20260506013056 20 25 0.0 3.2 0.00 0.00 0.00 60 1013.4
20260506012557 20 37 0.0 3.2 0.00 0.00 0.00 59 1013.3
20260506012100 20 41 0.0 3.2 0.00 0.00 0.00 59 1013.3
20260506011556 20 0 0.0 1.6 0.00 0.00 0.00 58 1013.2
20260506011058 20 49 0.0 1.6 0.00 0.00 0.00 58 1013.3
20260506010555 20 48 0.0 1.6 0.00 0.00 0.00 57 1013.3
20260506005558 20 46 0.0 3.2 0.00 0.00 0.00 57 1013.3
20260506005057 20 46 1.6 3.2 0.00 0.00 0.00 58 1013.4
20260506004557 20 45 1.6 1.6 0.00 0.00 0.00 59 1013.4
20260506004057 21 247 0.0 1.6 0.00 0.00 0.00 58 1013.3
20260506003601 21 247 0.0 1.6 0.00 0.00 0.00 58 1013.3
20260506003107 21 247 0.0 1.6 0.00 0.00 0.00 58 1013.2
20260506002601 21 0 0.0 0.0 0.00 0.00 0.00 56 1013.3
20260506002057 22 247 0.0 0.0 0.00 0.00 0.00 55 1013.4
20260506001618 22 0 0.0 3.2 0.00 0.00 0.00 54 1013.3
20260506001057 22 247 0.0 4.8 0.00 0.00 0.00 53 1013.5
20260506000558 22 248 1.6 4.8 0.00 0.00 0.00 54 1013.4
20260506000105 23 252 3.2 4.8 0.00 0.00 0.00 55 1013.4
20260505235555 23 243 3.2 3.2 0.00 0.00 0.00 52 1013.4
20260505235055 23 246 1.6 4.8 0.00 0.00 0.00 54 1013.3
20260505234611 23 243 3.2 4.8 0.00 0.00 0.00 51 1013.3
20260505234058 23 262 3.2 4.8 0.00 0.00 0.00 51 1013.3
20260505233557 23 250 3.2 6.4 0.00 0.00 0.00 51 1013.3
20260505233057 23 241 3.2 8.0 0.00 0.00 0.00 49 1013.3
20260505232558 23 252 4.8 8.0 0.00 0.00 0.00 48 1013.3
20260505232059 23 254 3.2 9.7 0.00 0.00 0.00 47 1013.4
20260505231558 23 248 6.4 9.7 0.00 0.00 0.00 46 1013.4
20260505231057 23 252 3.2 9.7 0.00 0.00 0.00 48 1013.4
20260505230559 23 249 4.8 11.3 0.00 0.00 0.00 48 1013.4
20260505230056 23 266 6.4 11.3 0.00 0.00 0.00 47 1013.4
20260505225559 23 258 3.2 6.4 0.00 0.00 0.00 48 1013.5
20260505225058 23 259 3.2 6.4 0.00 0.00 0.00 49 1013.5
20260505224559 23 252 1.6 8.0 0.00 0.00 0.00 48 1013.5
20260505224057 23 253 3.2 8.0 0.00 0.00 0.00 47 1013.5
20260505223557 23 273 4.8 8.0 0.00 0.00 0.00 46 1013.6
20260505223108 23 267 1.6 4.8 0.00 0.00 0.00 46 1013.6
20260505222557 23 245 1.6 9.7 0.00 0.00 0.00 45 1013.4
20260505222058 23 257 3.2 11.3 0.00 0.00 0.00 46 1013.5
20260505221603 23 277 4.8 11.3 0.00 0.00 0.00 44 1013.5
20260505221054 23 243 6.4 12.9 0.00 0.00 0.00 45 1013.2
20260505220557 23 252 8.0 12.9 0.00 0.00 0.00 47 1013.3
20260505220100 24 255 6.4 19.3 0.00 0.00 0.00 45 1013.3
20260505215558 23 246 6.4 19.3 0.00 0.00 0.00 46 1013.5
20260505215057 23 233 8.0 19.3 0.00 0.00 0.00 46 1013.8
20260505214604 24 245 4.8 11.3 0.00 0.00 0.00 44 1013.6
20260505214057 24 274 4.8 11.3 0.00 0.00 0.00 43 1013.5
20260505213559 24 270 6.4 11.3 0.00 0.00 0.00 43 1013.6
20260505213056 24 248 6.4 11.3 0.00 0.00 0.00 42 1013.5
20260505212557 24 245 6.4 12.9 0.00 0.00 0.00 44 1013.5
20260505212058 24 274 4.8 14.5 0.00 0.00 0.00 44 1013.6
20260505211634 24 238 9.7 14.5 0.00 0.00 0.00 45 1013.7
20260505211055 24 251 8.0 14.5 0.00 0.00 0.00 42 1013.7
20260505210556 24 256 8.0 16.1 0.00 0.00 0.00 43 1013.7
20260505210103 24 237 6.4 16.1 0.00 0.00 0.00 47 1013.6
20260505205555 24 273 8.0 12.9 0.00 0.00 0.00 44 1013.8
20260505205057 24 230 8.0 12.9 0.00 0.00 0.00 45 1013.7
20260505204559 24 283 6.4 19.3 0.00 0.00 0.00 45 1013.7
20260505204100 24 250 8.0 19.3 0.00 0.00 0.00 45 1013.6
20260505203557 24 247 8.0 16.1 0.00 0.00 0.00 45 1013.7
20260505203123 24 264 8.0 12.9 0.00 0.00 0.00 44 1013.9
20260505202557 24 256 8.0 12.9 0.00 0.00 0.00 44 1013.9
20260505202058 24 237 6.4 11.3 0.00 0.00 0.00 43 1013.9
20260505201558 24 244 6.4 12.9 0.00 0.00 0.00 43 1014.0
20260505201057 25 242 6.4 17.7 0.00 0.00 0.00 43 1014.0
20260505200557 25 296 6.4 17.7 0.00 0.00 0.00 43 1014.1
20260505200057 25 271 6.4 16.1 0.00 0.00 0.00 42 1014.2
20260505195558 25 253 6.4 11.3 0.00 0.00 0.00 44 1014.2
20260505195058 25 249 4.8 16.1 0.00 0.00 0.00 43 1014.2
20260505194558 25 249 6.4 16.1 0.00 0.00 0.00 44 1014.2
20260505194055 25 250 6.4 11.3 0.00 0.00 0.00 46 1014.3
20260505193555 25 250 6.4 11.3 0.00 0.00 0.00 46 1014.3
20260505193057 25 258 4.8 9.7 0.00 0.00 0.00 44 1014.4
20260505192557 25 274 4.8 12.9 0.00 0.00 0.00 45 1014.4
20260505192054 25 284 4.8 12.9 0.00 0.00 0.00 42 1014.5
20260505191619 25 278 8.0 12.9 0.00 0.00 0.00 44 1014.5
20260505191129 25 271 6.4 9.7 0.00 0.00 0.00 44 1014.6
20260505190557 24 245 6.4 17.7 0.00 0.00 0.00 43 1014.7
20260505190057 25 253 6.4 17.7 0.00 0.00 0.00 43 1014.7
20260505185557 25 153 8.0 12.9 0.00 0.00 0.00 45 1014.8
20260505185057 25 274 6.4 11.3 0.00 0.00 0.00 41 1014.9
20260505184555 25 269 4.8 11.3 0.00 0.00 0.00 41 1015.0
20260505184057 25 256 6.4 12.9 0.00 0.00 0.00 41 1014.9
20260505183556 24 274 8.0 12.9 0.00 0.00 0.00 42 1015.1
20260505183105 25 250 8.0 12.9 0.00 0.00 0.00 42 1015.2
20260505182557 24 233 4.8 12.9 0.00 0.00 0.00 42 1015.3
20260505182058 24 259 8.0 14.5 0.00 0.00 0.00 43 1015.4
20260505181556 24 259 3.2 14.5 0.00 0.00 0.00 43 1015.4
20260505181055 24 260 6.4 12.9 0.00 0.00 0.00 42 1015.5
20260505180554 24 246 8.0 14.5 0.00 0.00 0.00 44 1015.6
20260505180114 24 239 6.4 14.5 0.00 0.00 0.00 44 1015.8
20260505175554 24 265 9.7 14.5 0.00 0.00 0.00 43 1015.9
20260505175104 24 250 6.4 14.5 0.00 0.00 0.00 45 1015.9
20260505174558 24 255 6.4 14.5 0.00 0.00 0.00 45 1015.9
20260505174057 24 246 6.4 17.7 0.00 0.00 0.00 46 1015.8
20260505173558 24 257 6.4 17.7 0.00 0.00 0.00 44 1015.8
20260505173056 24 231 9.7 17.7 0.00 0.00 0.00 45 1015.9
20260505172600 24 243 4.8 11.3 0.00 0.00 0.00 44 1015.9
20260505172057 24 257 6.4 11.3 0.00 0.00 0.00 44 1015.9
20260505171557 24 281 6.4 11.3 0.00 0.00 0.00 46 1015.9
20260505171057 24 250 3.2 11.3 0.00 0.00 0.00 46 1015.8
20260505170556 24 250 4.8 12.9 0.00 0.00 0.00 46 1015.8
20260505170059 23 276 4.8 12.9 0.00 0.00 0.00 46 1015.8
20260505165555 23 254 4.8 11.3 0.00 0.00 0.00 47 1015.9
20260505165056 23 245 6.4 11.3 0.00 0.00 0.00 46 1016.0
20260505164602 23 252 4.8 11.3 0.00 0.00 0.00 46 1016.2
20260505164057 23 248 4.8 9.7 0.00 0.00 0.00 46 1016.2
20260505163554 23 250 4.8 9.7 0.00 0.00 0.00 46 1016.3
20260505163059 23 257 4.8 9.7 0.00 0.00 0.00 47 1016.3
20260505162554 23 248 4.8 9.7 0.00 0.00 0.00 46 1016.4
20260505162058 23 255 3.2 9.7 0.00 0.00 0.00 47 1016.4
20260505161555 22 242 4.8 8.0 0.00 0.00 0.00 48 1016.4
20260505161054 22 259 6.4 9.7 0.00 0.00 0.00 49 1016.5
20260505160556 22 233 6.4 9.7 0.00 0.00 0.00 50 1016.6
20260505153058 21 252 3.2 4.8 0.00 0.00 0.00 58 1016.4
20260505152558 21 259 1.6 4.8 0.00 0.00 0.00 57 1016.5
20260505152054 21 231 1.6 4.8 0.00 0.00 0.00 59 1016.7
20260505151554 20 246 1.6 4.8 0.00 0.00 0.00 60 1016.8
20260505151054 20 246 3.2 4.8 0.00 0.00 0.00 61 1016.9
20260505150556 20 255 3.2 4.8 0.00 0.00 0.00 62 1016.8
20260505140557 16 240 1.6 3.2 0.00 0.00 0.00 71 1016.8
20260505140113 16 250 1.6 3.2 0.00 0.00 0.00 71 1016.7
20260505124602 13 0 0.0 0.0 0.00 0.00 0.00 80 1015.8
20260505124055 13 0 0.0 1.6 0.00 0.00 0.00 82 1015.9
20260505123555 13 40 0.0 1.6 0.00 0.00 0.00 83 1015.9
20260505123058 12 0 0.0 0.0 0.00 0.00 0.00 83 1015.8
20260505122555 12 0 0.0 0.0 0.00 0.00 0.00 85 1015.8
20260505122054 12 0 0.0 1.6 0.00 0.00 0.00 85 1015.9
20260505121602 12 0 0.0 1.6 0.00 0.00 0.00 85 1015.9
20260505121056 12 40 0.0 1.6 0.00 0.00 0.00 86 1016.0
20260505120555 12 40 0.0 1.6 0.00 0.00 0.00 86 1015.9
20260505120117 11 40 1.6 1.6 0.00 0.00 0.00 86 1015.9
20260505115555 11 41 0.0 1.6 0.00 0.00 0.00 87 1015.7
20260505115057 11 0 1.6 1.6 0.00 0.00 0.00 87 1015.7
20260505114557 11 0 0.0 1.6 0.00 0.00 0.00 86 1015.5
20260505114054 11 38 0.0 1.6 0.00 0.00 0.00 86 1015.4
20260505113559 11 0 0.0 1.6 0.00 0.00 0.00 86 1015.4
20260505113105 11 0 1.6 3.2 0.00 0.00 0.00 86 1015.4
20260505112555 11 33 1.6 3.2 0.00 0.00 0.00 86 1015.2
20260505112055 11 63 1.6 1.6 0.00 0.00 0.00 86 1015.3
20260505111600 11 63 0.0 1.6 0.00 0.00 0.00 86 1015.3
20260505111055 11 63 0.0 3.2 0.00 0.00 0.00 86 1015.2
20260505110555 11 63 1.6 3.2 0.00 0.00 0.00 86 1015.1
20260505110107 11 56 1.6 3.2 0.00 0.00 0.00 86 1015.1
20260505102054 11 8 1.6 3.2 0.00 0.00 0.00 83 1015.1
20260505101604 11 90 0.0 1.6 0.00 0.00 0.00 83 1015.2
20260505101055 11 0 0.0 1.6 0.00 0.00 0.00 82 1015.0
20260505100557 11 51 0.0 1.6 0.00 0.00 0.00 82 1015.0
20260505100108 11 51 0.0 3.2 0.00 0.00 0.00 82 1014.8
20260505095557 11 49 0.0 3.2 0.00 0.00 0.00 82 1014.9
20260505095100 11 58 0.0 3.2 0.00 0.00 0.00 82 1014.9
20260505094609 11 65 0.0 3.2 0.00 0.00 0.00 81 1014.9
20260505094055 11 66 1.6 3.2 0.00 0.00 0.00 81 1015.0
20260505093557 12 49 1.6 3.2 0.00 0.00 0.00 81 1014.8
20260505093104 12 41 1.6 3.2 0.00 0.00 0.00 80 1014.8
20260505092557 12 27 0.0 3.2 0.00 0.00 0.00 80 1014.9
20260505092056 12 27 1.6 3.2 0.00 0.00 0.00 80 1014.8
20260505091611 12 57 1.6 1.6 0.00 0.00 0.00 80 1014.9
20260505091056 12 53 1.6 1.6 0.00 0.00 0.00 80 1015.0
20260505090557 12 53 0.0 1.6 0.00 0.00 0.00 80 1014.9
20260505085555 12 54 1.6 3.2 0.00 0.00 0.00 80 1015.1
20260505085057 12 18 1.6 3.2 0.00 0.00 0.00 79 1015.1
20260505084607 12 18 1.6 3.2 0.00 0.00 0.00 79 1015.2
20260505084055 12 49 1.6 3.2 0.00 0.00 0.00 78 1015.0
20260505083558 12 22 1.6 3.2 0.00 0.00 0.00 78 1015.1
20260505083107 12 41 0.0 3.2 0.00 0.00 0.00 78 1015.2
20260505082555 12 13 1.6 3.2 0.00 0.00 0.00 78 1015.0
20260505082055 13 27 0.0 4.8 0.00 0.00 0.00 77 1015.1
20260505081605 13 12 1.6 4.8 0.00 0.00 0.00 77 1015.1
20260505081055 13 16 0.0 3.2 0.00 0.00 0.00 76 1015.2
20260505080554 13 24 1.6 3.2 0.00 0.00 0.00 76 1015.0
20260505080103 13 12 1.6 1.6 0.00 0.00 0.00 77 1015.1
20260505075555 13 12 0.0 3.2 0.00 0.00 0.00 76 1015.1
20260505075059 13 12 0.0 3.2 0.00 0.00 0.00 76 1015.1
20260505074559 13 11 1.6 3.2 0.00 0.00 0.00 76 1015.0
20260505074059 13 46 1.6 3.2 0.00 0.00 0.00 76 1015.0
20260505073559 13 47 1.6 3.2 0.00 0.00 0.00 77 1015.0
20260505073058 13 39 0.0 1.6 0.00 0.00 0.00 76 1015.0
20260505072602 13 39 0.0 4.8 0.00 0.00 0.00 75 1015.1
20260505072100 13 40 1.6 4.8 0.00 0.00 0.00 75 1015.0
20260505071601 14 58 3.2 4.8 0.00 0.00 0.00 74 1015.0
20260505071058 14 27 1.6 3.2 0.00 0.00 0.00 73 1015.0
20260505070601 14 11 1.6 3.2 0.00 0.00 0.00 72 1014.9
20260505070106 14 19 1.6 3.2 0.00 0.00 0.00 71 1014.9
20260505065556 15 17 0.0 3.2 0.00 0.00 0.00 69 1014.9
20260505065058 15 17 0.0 3.2 0.00 0.00 0.00 68 1014.9
20260505064559 15 22 1.6 3.2 0.00 0.00 0.00 68 1015.0
20260505064059 15 7 0.0 1.6 0.00 0.00 0.00 65 1015.0
20260505063558 15 0 0.0 1.6 0.00 0.00 0.00 65 1015.0
20260505063057 15 262 0.0 1.6 0.00 0.00 0.00 64 1015.0
20260505062602 16 259 0.0 1.6 0.00 0.00 0.00 62 1015.0
20260505062101 16 258 0.0 3.2 0.00 0.00 0.00 61 1015.2
20260505061621 16 256 1.6 3.2 0.00 0.00 0.00 61 1015.2
20260505061057 16 248 1.6 3.2 0.00 0.00 0.00 61 1015.3
20260505060601 16 257 1.6 3.2 0.00 0.00 0.00 61 1015.3
20260505055557 17 262 0.0 6.4 0.00 0.00 0.00 59 1015.3
20260505055058 17 254 1.6 6.4 0.00 0.00 0.00 58 1015.2
20260505054557 17 250 3.2 6.4 0.00 0.00 0.00 57 1015.3
20260505054057 17 249 1.6 4.8 0.00 0.00 0.00 59 1015.2
20260505053557 17 233 1.6 4.8 0.00 0.00 0.00 59 1015.3
20260505053058 17 238 1.6 4.8 0.00 0.00 0.00 58 1015.4
20260505052600 17 240 1.6 4.8 0.00 0.00 0.00 59 1015.3
20260505052100 17 270 3.2 4.8 0.00 0.00 0.00 59 1015.3
20260505051600 17 241 1.6 3.2 0.00 0.00 0.00 59 1015.2
20260505051059 17 243 1.6 4.8 0.00 0.00 0.00 61 1015.1
20260505050558 17 244 3.2 4.8 0.00 0.00 0.00 61 1015.2